Time,TemperatureF,DewpointF,PressureIn,WindDirection,WindDirectionDegrees,WindSpeedMPH,WindSpeedGustMPH,Humidity,HourlyPrecipIn,Conditions,Clouds,dailyrainin,SoftwareType,DateUTC
2013-02-17 00:00:00,29.8,16.4,29.65,North,0,6.0,18.0,57,0.00,CLR,OVC,0.07,WeatherDisplay:10.37,2013-02-17 05:00:00,
2013-02-17 00:05:00,29.4,14.8,29.63,North,0,7.0,17.0,54,0.00,RA,OVC,0.00,WeatherDisplay:10.37,2013-02-17 05:05:00,
2013-02-17 00:10:00,29.4,14.8,29.63,North,0,7.0,17.0,54,0.00,RA,OVC,0.00,WeatherDisplay:10.37,2013-02-17 05:10:00,
2013-02-17 00:15:00,29.4,14.8,29.63,North,0,7.0,17.0,54,0.00,CLR,OVC,0.00,WeatherDisplay:10.37,2013-02-17 05:15:00,
2013-02-17 00:20:00,29.4,14.8,29.63,North,0,7.0,17.0,54,0.00,CLR,OVC,0.00,WeatherDisplay:10.37,2013-02-17 05:20:00,
2013-02-17 00:25:00,29.4,14.8,29.63,North,0,7.0,17.0,54,0.00,CLR,OVC,0.00,WeatherDisplay:10.37,2013-02-17 05:25:00,
2013-02-17 00:30:00,29.4,14.8,29.63,North,0,7.0,17.0,54,0.00,CLR,OVC,0.00,WeatherDisplay:10.37,2013-02-17 05:30:00,
2013-02-17 00:35:00,27.8,16.1,29.63,North,0,7.0,20.0,61,0.00,CLR,OVC,0.00,WeatherDisplay:10.37,2013-02-17 05:35:00,
2013-02-17 00:40:00,27.8,16.1,29.63,North,0,7.0,20.0,61,0.00,CLR,OVC,0.00,WeatherDisplay:10.37,2013-02-17 05:40:00,
2013-02-17 00:45:00,27.8,16.1,29.63,North,0,7.0,20.0,61,0.00,CLR,OVC,0.00,WeatherDisplay:10.37,2013-02-17 05:45:00,
2013-02-17 00:50:00,27.8,16.1,29.63,North,0,7.0,20.0,61,0.00,CLR,OVC,0.00,WeatherDisplay:10.37,2013-02-17 05:50:00,
2013-02-17 00:55:00,27.8,16.1,29.63,North,0,7.0,20.0,61,0.00,CLR,OVC,0.00,WeatherDisplay:10.37,2013-02-17 05:55:00,
2013-02-17 01:00:00,27.8,16.1,29.63,North,0,7.0,20.0,61,0.00,CLR,OVC,0.00,WeatherDisplay:10.37,2013-02-17 06:00:00,
2013-02-17 01:05:00,26.9,15.2,29.62,North,10,6.0,18.0,61,0.00,CLR,OVC,0.00,WeatherDisplay:10.37,2013-02-17 06:05:00,
2013-02-17 01:10:00,26.9,15.2,29.62,NNE,22,6.0,18.0,61,0.00,CLR,OVC,0.00,WeatherDisplay:10.37,2013-02-17 06:10:00,
2013-02-17 01:15:00,26.9,15.2,29.62,NNE,22,6.0,18.0,61,0.00,CLR,OVC,0.00,WeatherDisplay:10.37,2013-02-17 06:15:00,
2013-02-17 01:20:00,26.9,15.2,29.62,NNE,22,6.0,18.0,61,0.00,CLR,OVC,0.00,WeatherDisplay:10.37,2013-02-17 06:20:00,
2013-02-17 01:25:00,26.9,15.2,29.62,NNE,22,6.0,18.0,61,0.00,CLR,OVC,0.00,WeatherDisplay:10.37,2013-02-17 06:25:00,
2013-02-17 01:30:00,26.9,15.2,29.62,NNE,22,6.0,18.0,61,0.00,CLR,OVC,0.00,WeatherDisplay:10.37,2013-02-17 06:30:00,
2013-02-17 01:35:00,27.0,11.7,29.62,NNE,31,3.0,15.0,52,0.00,CLR,OVC,0.00,WeatherDisplay:10.37,2013-02-17 06:35:00,
2013-02-17 01:40:00,27.0,11.7,29.62,NE,45,3.0,15.0,52,0.00,CLR,OVC,0.00,WeatherDisplay:10.37,2013-02-17 06:40:00,
2013-02-17 01:45:00,27.0,11.7,29.62,NE,45,3.0,15.0,52,0.00,CLR,OVC,0.00,WeatherDisplay:10.37,2013-02-17 06:45:00,
2013-02-17 01:50:00,27.0,11.7,29.62,NE,45,3.0,15.0,52,0.00,CLR,OVC,0.00,WeatherDisplay:10.37,2013-02-17 06:50:00,
2013-02-17 01:55:00,27.0,11.7,29.62,NE,45,3.0,15.0,52,0.00,CLR,OVC,0.00,WeatherDisplay:10.37,2013-02-17 06:55:00,
2013-02-17 02:00:00,27.0,11.7,29.62,NE,45,3.0,15.0,52,0.00,CLR,OVC,0.00,WeatherDisplay:10.37,2013-02-17 07:00:00,
2013-02-17 02:05:00,27.3,5.6,29.60,NNE,16,7.0,17.0,39,0.00,CLR,OVC,0.00,WeatherDisplay:10.37,2013-02-17 07:05:00,
2013-02-17 02:10:00,27.3,5.6,29.60,North,0,7.0,17.0,39,0.00,CLR,OVC,0.00,WeatherDisplay:10.37,2013-02-17 07:10:00,
2013-02-17 02:15:00,27.3,5.6,29.60,North,0,7.0,17.0,39,0.00,CLR,OVC,0.00,WeatherDisplay:10.37,2013-02-17 07:15:00,
2013-02-17 02:20:00,27.3,5.6,29.60,North,0,7.0,17.0,39,0.00,CLR,OVC,0.00,WeatherDisplay:10.37,2013-02-17 07:20:00,
2013-02-17 02:25:00,27.3,5.6,29.60,North,0,7.0,17.0,39,0.00,CLR,OVC,0.00,WeatherDisplay:10.37,2013-02-17 07:25:00,
2013-02-17 02:30:00,27.3,5.6,29.60,North,0,7.0,17.0,39,0.00,CLR,OVC,0.00,WeatherDisplay:10.37,2013-02-17 07:30:00,
2013-02-17 02:35:00,26.7,7.7,29.59,North,0,8.0,20.0,44,0.00,CLR,OVC,0.00,WeatherDisplay:10.37,2013-02-17 07:35:00,
2013-02-17 02:40:00,26.7,7.7,29.59,North,0,8.0,20.0,44,0.00,CLR,OVC,0.00,WeatherDisplay:10.37,2013-02-17 07:40:00,
2013-02-17 02:45:00,26.7,7.7,29.59,North,0,8.0,20.0,44,0.00,CLR,OVC,0.00,WeatherDisplay:10.37,2013-02-17 07:45:00,
2013-02-17 02:50:00,26.7,7.7,29.59,North,0,8.0,20.0,44,0.00,CLR,OVC,0.00,WeatherDisplay:10.37,2013-02-17 07:50:00,
2013-02-17 02:55:00,26.7,7.7,29.59,North,0,8.0,20.0,44,0.00,CLR,OVC,0.00,WeatherDisplay:10.37,2013-02-17 07:55:00,
2013-02-17 03:00:00,26.7,7.7,29.59,North,0,8.0,20.0,44,0.00,CLR,OVC,0.00,WeatherDisplay:10.37,2013-02-17 08:00:00,
2013-02-17 03:05:00,26.6,7.1,29.59,North,0,8.0,24.0,43,0.00,CLR,OVC,0.00,WeatherDisplay:10.37,2013-02-17 08:05:00,
2013-02-17 03:10:00,26.6,7.1,29.59,North,0,8.0,24.0,43,0.00,CLR,OVC,0.00,WeatherDisplay:10.37,2013-02-17 08:10:00,
2013-02-17 03:15:00,26.6,7.1,29.59,North,0,8.0,24.0,43,0.00,CLR,OVC,0.00,WeatherDisplay:10.37,2013-02-17 08:15:00,
2013-02-17 03:20:00,26.6,7.1,29.59,North,0,8.0,24.0,43,0.00,CLR,OVC,0.00,WeatherDisplay:10.37,2013-02-17 08:20:00,
2013-02-17 03:25:00,26.6,7.1,29.59,North,0,8.0,24.0,43,0.00,CLR,OVC,0.00,WeatherDisplay:10.37,2013-02-17 08:25:00,
2013-02-17 03:30:00,26.6,7.1,29.59,North,0,8.0,24.0,43,0.00,CLR,OVC,0.00,WeatherDisplay:10.37,2013-02-17 08:30:00,
2013-02-17 03:35:00,26.3,5.8,29.57,North,0,6.0,16.0,41,0.00,CLR,OVC,0.00,WeatherDisplay:10.37,2013-02-17 08:35:00,
2013-02-17 03:40:00,26.3,5.8,29.57,North,0,6.0,16.0,41,0.00,CLR,OVC,0.00,WeatherDisplay:10.37,2013-02-17 08:40:00,
2013-02-17 03:45:00,26.3,5.8,29.57,North,0,6.0,16.0,41,0.00,CLR,OVC,0.00,WeatherDisplay:10.37,2013-02-17 08:45:00,
2013-02-17 03:50:00,26.3,5.8,29.57,North,0,6.0,16.0,41,0.00,CLR,OVC,0.00,WeatherDisplay:10.37,2013-02-17 08:50:00,
2013-02-17 03:55:00,26.3,5.8,29.57,North,0,6.0,16.0,41,0.00,CLR,OVC,0.00,WeatherDisplay:10.37,2013-02-17 08:55:00,
2013-02-17 04:00:00,26.3,5.8,29.57,North,0,6.0,16.0,41,0.00,CLR,OVC,0.00,WeatherDisplay:10.37,2013-02-17 09:00:00,
2013-02-17 04:05:00,25.8,4.8,29.57,North,0,6.0,18.0,40,0.00,CLR,OVC,0.00,WeatherDisplay:10.37,2013-02-17 09:05:00,
2013-02-17 04:10:00,25.8,4.8,29.57,North,0,6.0,18.0,40,0.00,CLR,OVC,0.00,WeatherDisplay:10.37,2013-02-17 09:10:00,
2013-02-17 04:15:00,25.8,4.8,29.57,North,0,6.0,18.0,40,0.00,CLR,OVC,0.00,WeatherDisplay:10.37,2013-02-17 09:15:00,
2013-02-17 04:20:00,25.8,4.8,29.57,North,0,6.0,18.0,40,0.00,CLR,OVC,0.00,WeatherDisplay:10.37,2013-02-17 09:20:00,
2013-02-17 04:25:00,25.8,4.8,29.57,North,0,6.0,18.0,40,0.00,CLR,OVC,0.00,WeatherDisplay:10.37,2013-02-17 09:25:00,
2013-02-17 04:30:00,25.8,4.8,29.57,North,0,6.0,18.0,40,0.00,CLR,OVC,0.00,WeatherDisplay:10.37,2013-02-17 09:30:00,
2013-02-17 04:35:00,25.6,5.1,29.55,North,0,7.0,16.0,41,0.00,CLR,OVC,0.00,WeatherDisplay:10.37,2013-02-17 09:35:00,
2013-02-17 04:40:00,25.6,5.1,29.55,North,0,7.0,16.0,41,0.00,CLR,OVC,0.00,WeatherDisplay:10.37,2013-02-17 09:40:00,
2013-02-17 04:45:00,25.6,5.1,29.55,North,0,7.0,16.0,41,0.00,CLR,OVC,0.00,WeatherDisplay:10.37,2013-02-17 09:45:00,
2013-02-17 04:50:00,25.6,5.1,29.55,North,0,7.0,16.0,41,0.00,CLR,OVC,0.00,WeatherDisplay:10.37,2013-02-17 09:50:00,
2013-02-17 04:55:00,25.6,5.1,29.55,North,0,7.0,16.0,41,0.00,CLR,OVC,0.00,WeatherDisplay:10.37,2013-02-17 09:55:00,
2013-02-17 05:00:00,25.6,5.1,29.55,North,0,7.0,16.0,41,0.00,CLR,OVC,0.00,WeatherDisplay:10.37,2013-02-17 10:00:00,
2013-02-17 05:05:00,25.0,6.6,29.55,North,0,10.0,24.0,45,0.00,CLR,OVC,0.00,WeatherDisplay:10.37,2013-02-17 10:05:00,
2013-02-17 05:10:00,25.0,6.6,29.55,North,0,10.0,24.0,45,0.00,CLR,OVC,0.00,WeatherDisplay:10.37,2013-02-17 10:10:00,
2013-02-17 05:15:00,25.0,6.6,29.55,North,0,10.0,24.0,45,0.00,CLR,OVC,0.00,WeatherDisplay:10.37,2013-02-17 10:15:00,
2013-02-17 05:20:00,25.0,6.6,29.55,North,0,10.0,24.0,45,0.00,CLR,OVC,0.00,WeatherDisplay:10.37,2013-02-17 10:20:00,
2013-02-17 05:25:00,25.0,6.6,29.55,North,0,10.0,24.0,45,0.00,CLR,OVC,0.00,WeatherDisplay:10.37,2013-02-17 10:25:00,
2013-02-17 05:30:00,25.0,6.6,29.55,North,0,10.0,24.0,45,0.00,CLR,OVC,0.00,WeatherDisplay:10.37,2013-02-17 10:30:00,
2013-02-17 05:35:00,24.8,4.9,29.53,North,0,7.0,21.0,42,0.00,CLR,OVC,0.00,WeatherDisplay:10.37,2013-02-17 10:35:00,
2013-02-17 05:40:00,24.8,4.9,29.53,North,0,7.0,21.0,42,0.00,CLR,OVC,0.00,WeatherDisplay:10.37,2013-02-17 10:40:00,
2013-02-17 05:45:00,24.8,4.9,29.53,North,0,7.0,21.0,42,0.00,CLR,OVC,0.00,WeatherDisplay:10.37,2013-02-17 10:45:00,
2013-02-17 05:50:00,24.8,4.9,29.53,North,0,7.0,21.0,42,0.00,CLR,OVC,0.00,WeatherDisplay:10.37,2013-02-17 10:50:00,
2013-02-17 05:55:00,24.8,4.9,29.53,North,0,7.0,21.0,42,0.00,CLR,OVC,0.00,WeatherDisplay:10.37,2013-02-17 10:55:00,
2013-02-17 06:00:00,24.8,4.9,29.53,North,0,7.0,21.0,42,0.00,CLR,OVC,0.00,WeatherDisplay:10.37,2013-02-17 11:00:00,
2013-02-17 06:05:00,24.5,3.0,29.52,North,0,6.0,24.0,39,0.00,CLR,OVC,0.00,WeatherDisplay:10.37,2013-02-17 11:05:00,
2013-02-17 06:10:00,24.5,3.0,29.52,North,0,6.0,24.0,39,0.00,CLR,OVC,0.00,WeatherDisplay:10.37,2013-02-17 11:10:00,
2013-02-17 06:15:00,24.5,3.0,29.52,North,0,6.0,24.0,39,0.00,CLR,OVC,0.00,WeatherDisplay:10.37,2013-02-17 11:15:00,
2013-02-17 06:20:00,24.5,3.0,29.52,North,0,6.0,24.0,39,0.00,CLR,OVC,0.00,WeatherDisplay:10.37,2013-02-17 11:20:00,
2013-02-17 06:25:00,24.5,3.0,29.52,North,0,6.0,24.0,39,0.00,CLR,OVC,0.00,WeatherDisplay:10.37,2013-02-17 11:25:00,
2013-02-17 06:30:00,24.5,3.0,29.52,North,0,6.0,24.0,39,0.00,CLR,OVC,0.00,WeatherDisplay:10.37,2013-02-17 11:30:00,
2013-02-17 06:35:00,24.4,2.4,29.50,North,349,6.0,22.0,38,0.00,CLR,OVC,0.00,WeatherDisplay:10.37,2013-02-17 11:35:00,
2013-02-17 06:40:00,24.4,2.4,29.50,NNW,338,6.0,22.0,38,0.00,CLR,OVC,0.00,WeatherDisplay:10.37,2013-02-17 11:40:00,
2013-02-17 06:45:00,24.4,2.4,29.50,NNW,338,6.0,22.0,38,0.00,CLR,OVC,0.00,WeatherDisplay:10.37,2013-02-17 11:45:00,
2013-02-17 06:50:00,24.4,2.4,29.50,NNW,338,6.0,22.0,38,0.00,CLR,OVC,0.00,WeatherDisplay:10.37,2013-02-17 11:50:00,
2013-02-17 06:55:00,24.4,2.4,29.50,NNW,338,6.0,22.0,38,0.00,CLR,OVC,0.00,WeatherDisplay:10.37,2013-02-17 11:55:00,
2013-02-17 07:00:00,24.4,2.4,29.50,NNW,338,6.0,22.0,38,0.00,CLR,OVC,0.00,WeatherDisplay:10.37,2013-02-17 12:00:00,
2013-02-17 07:05:00,23.6,3.3,29.49,NNW,338,7.0,18.0,41,0.00,CLR,OVC,0.00,WeatherDisplay:10.37,2013-02-17 12:05:00,
2013-02-17 07:10:00,23.6,3.3,29.49,NNW,338,7.0,18.0,41,0.00,CLR,OVC,0.00,WeatherDisplay:10.37,2013-02-17 12:10:00,
2013-02-17 07:15:00,23.6,3.3,29.49,NNW,338,7.0,18.0,41,0.00,CLR,OVC,0.00,WeatherDisplay:10.37,2013-02-17 12:15:00,
2013-02-17 07:20:00,23.6,3.3,29.49,NNW,338,7.0,18.0,41,0.00,CLR,OVC,0.00,WeatherDisplay:10.37,2013-02-17 12:20:00,
2013-02-17 07:25:00,23.6,3.3,29.49,NNW,338,7.0,18.0,41,0.00,CLR,OVC,0.00,WeatherDisplay:10.37,2013-02-17 12:25:00,
2013-02-17 07:30:00,23.6,3.3,29.49,NNW,338,7.0,18.0,41,0.00,CLR,OVC,0.00,WeatherDisplay:10.37,2013-02-17 12:30:00,
2013-02-17 07:35:00,23.0,2.2,29.50,NNW,338,7.0,23.0,40,0.00,CLR,OVC,0.00,WeatherDisplay:10.37,2013-02-17 12:35:00,
2013-02-17 07:40:00,23.0,2.2,29.50,NNW,338,7.0,23.0,40,0.00,CLR,OVC,0.00,WeatherDisplay:10.37,2013-02-17 12:40:00,
2013-02-17 07:45:00,23.0,2.2,29.50,NNW,338,7.0,23.0,40,0.00,CLR,OVC,0.00,WeatherDisplay:10.37,2013-02-17 12:45:00,
2013-02-17 07:50:00,23.0,2.2,29.50,NNW,338,7.0,23.0,40,0.00,CLR,OVC,0.00,WeatherDisplay:10.37,2013-02-17 12:50:00,
2013-02-17 07:55:00,23.0,2.2,29.50,NNW,338,7.0,23.0,40,0.00,CLR,OVC,0.00,WeatherDisplay:10.37,2013-02-17 12:55:00,
2013-02-17 08:00:00,23.0,2.2,29.50,NNW,338,7.0,23.0,40,0.00,CLR,OVC,0.00,WeatherDisplay:10.37,2013-02-17 13:00:00,
2013-02-17 08:05:00,22.9,2.1,29.50,NNW,338,8.0,24.0,40,0.00,CLR,OVC,0.00,WeatherDisplay:10.37,2013-02-17 13:05:00,
2013-02-17 08:10:00,22.9,2.1,29.50,NNW,338,8.0,24.0,40,0.00,CLR,OVC,0.00,WeatherDisplay:10.37,2013-02-17 13:10:00,
2013-02-17 08:15:00,22.9,2.1,29.50,NNW,338,8.0,24.0,40,0.00,CLR,OVC,0.00,WeatherDisplay:10.37,2013-02-17 13:15:00,
2013-02-17 08:20:00,22.9,2.1,29.50,NNW,338,8.0,24.0,40,0.00,CLR,OVC,0.00,WeatherDisplay:10.37,2013-02-17 13:20:00,
2013-02-17 08:25:00,22.9,2.1,29.50,NNW,338,8.0,24.0,40,0.00,CLR,OVC,0.00,WeatherDisplay:10.37,2013-02-17 13:25:00,
2013-02-17 08:30:00,22.9,2.1,29.50,NNW,338,8.0,24.0,40,0.00,CLR,OVC,0.00,WeatherDisplay:10.37,2013-02-17 13:30:00,
2013-02-17 08:35:00,22.7,3.0,29.49,NNW,348,7.0,20.0,42,0.00,CLR,OVC,0.00,WeatherDisplay:10.37,2013-02-17 13:35:00,
2013-02-17 08:40:00,22.7,3.0,29.49,North,0,7.0,20.0,42,0.00,CLR,OVC,0.00,WeatherDisplay:10.37,2013-02-17 13:40:00,
2013-02-17 08:45:00,22.7,3.0,29.49,North,0,7.0,20.0,42,0.00,CLR,OVC,0.00,WeatherDisplay:10.37,2013-02-17 13:45:00,
2013-02-17 08:50:00,22.7,3.0,29.49,North,0,7.0,20.0,42,0.00,CLR,OVC,0.00,WeatherDisplay:10.37,2013-02-17 13:50:00,
2013-02-17 08:55:00,22.7,3.0,29.49,North,0,7.0,20.0,42,0.00,CLR,OVC,0.00,WeatherDisplay:10.37,2013-02-17 13:55:00,
2013-02-17 09:00:00,22.7,3.0,29.49,North,0,7.0,20.0,42,0.00,CLR,OVC,0.00,WeatherDisplay:10.37,2013-02-17 14:00:00,
2013-02-17 09:05:00,22.5,2.8,29.47,North,349,7.0,18.0,42,0.00,CLR,OVC,0.00,WeatherDisplay:10.37,2013-02-17 14:05:00,
2013-02-17 09:10:00,22.5,2.8,29.47,NNW,338,7.0,18.0,42,0.00,CLR,OVC,0.00,WeatherDisplay:10.37,2013-02-17 14:10:00,
2013-02-17 09:15:00,22.5,2.8,29.47,NNW,338,7.0,18.0,42,0.00,CLR,OVC,0.00,WeatherDisplay:10.37,2013-02-17 14:15:00,
2013-02-17 09:20:00,22.5,2.8,29.47,NNW,338,7.0,18.0,42,0.00,CLR,OVC,0.00,WeatherDisplay:10.37,2013-02-17 14:20:00,
2013-02-17 09:25:00,22.5,2.8,29.47,NNW,338,7.0,18.0,42,0.00,CLR,OVC,0.00,WeatherDisplay:10.37,2013-02-17 14:25:00,
2013-02-17 09:30:00,22.5,2.8,29.47,NNW,338,7.0,18.0,42,0.00,CLR,OVC,0.00,WeatherDisplay:10.37,2013-02-17 14:30:00,
2013-02-17 09:44:00,22.2,3.1,29.47,NW,326,8.0,24.0,43,0.00,CLR,OVC,0.00,WeatherDisplay:10.37,2013-02-17 14:44:00,
2013-02-17 09:50:00,22.2,3.6,29.47,NW,323,10.0,20.0,44,0.00,OVC,OVC,0.00,WeatherDisplay:10.37,2013-02-17 14:50:00,
2013-02-17 10:00:00,22.2,2.0,29.47,NNW,331,12.0,28.0,41,0.00,OVC,OVC,0.00,WeatherDisplay:10.37,2013-02-17 15:00:00,
2013-02-17 10:10:00,22.5,2.3,29.47,NNW,336,7.0,20.0,41,0.00,OVC,OVC,0.00,WeatherDisplay:10.37,2013-02-17 15:10:00,
2013-02-17 10:20:00,22.9,3.2,29.47,NNW,337,8.0,16.0,42,0.00,FEW,OVC,0.00,WeatherDisplay:10.37,2013-02-17 15:20:00,
2013-02-17 10:30:00,22.9,2.7,29.47,NNW,337,10.0,18.0,41,0.00,FEW,OVC,0.00,WeatherDisplay:10.37,2013-02-17 15:30:00,
2013-02-17 10:40:00,22.9,3.7,29.47,NW,321,8.0,15.0,43,0.00,FEW,OVC,0.00,WeatherDisplay:10.37,2013-02-17 15:40:00,
2013-02-17 10:50:00,23.2,2.9,29.47,NNW,342,10.0,20.0,41,0.00,FEW,OVC,0.00,WeatherDisplay:10.37,2013-02-17 15:50:00,
2013-02-17 11:00:00,23.6,3.3,29.47,NW,306,8.0,14.0,41,0.00,FEW,OVC,0.00,WeatherDisplay:10.37,2013-02-17 16:00:00,
2013-02-17 11:10:00,23.6,3.8,29.47,NW,326,7.0,22.0,42,0.00,FEW,OVC,0.00,WeatherDisplay:10.37,2013-02-17 16:10:00,
2013-02-17 11:20:00,23.6,1.7,29.47,NNW,339,9.0,18.0,38,0.00,CLR,OVC,0.00,WeatherDisplay:10.37,2013-02-17 16:20:00,
2013-02-17 11:30:00,23.8,2.4,29.47,NW,323,9.0,27.0,39,0.00,CLR,OVC,0.00,WeatherDisplay:10.37,2013-02-17 16:30:00,
2013-02-17 11:40:00,23.8,1.9,29.47,NNW,330,7.0,22.0,38,0.00,CLR,OVC,0.00,WeatherDisplay:10.37,2013-02-17 16:40:00,
2013-02-17 11:50:00,24.1,1.5,29.47,NW,324,6.0,24.0,37,0.00,CLR,OVC,0.00,WeatherDisplay:10.37,2013-02-17 16:50:00,
2013-02-17 12:00:00,24.5,1.9,29.47,NNW,336,14.0,21.0,37,0.00,CLR,OVC,0.00,WeatherDisplay:10.37,2013-02-17 17:00:00,
2013-02-17 12:10:00,24.8,2.7,29.47,NNW,336,8.0,21.0,38,0.00,CLR,OVC,0.00,WeatherDisplay:10.37,2013-02-17 17:10:00,
2013-02-17 12:20:00,25.3,3.2,29.47,NNW,330,3.0,18.0,38,0.00,CLR,OVC,0.00,WeatherDisplay:10.37,2013-02-17 17:20:00,
2013-02-17 12:30:00,25.8,3.1,29.47,NW,313,7.0,16.0,37,0.00,CLR,OVC,0.00,WeatherDisplay:10.37,2013-02-17 17:30:00,
2013-02-17 12:40:00,25.8,1.9,29.47,NW,316,7.0,23.0,35,0.00,CLR,OVC,0.00,WeatherDisplay:10.37,2013-02-17 17:40:00,
2013-02-17 12:50:00,25.8,1.9,29.47,NW,316,7.0,20.0,35,0.00,CLR,OVC,0.00,WeatherDisplay:10.37,2013-02-17 17:50:00,
2013-02-17 13:00:00,26.0,1.4,29.47,WNW,299,10.0,21.0,34,0.00,CLR,OVC,0.00,WeatherDisplay:10.37,2013-02-17 18:00:00,
2013-02-17 13:10:00,26.0,1.4,29.48,NW,309,9.0,17.0,34,0.00,CLR,OVC,0.00,WeatherDisplay:10.37,2013-02-17 18:10:00,
2013-02-17 13:20:00,26.5,0.6,29.48,NNW,334,7.0,20.0,32,0.00,CLR,OVC,0.00,WeatherDisplay:10.37,2013-02-17 18:20:00,
2013-02-17 13:30:00,27.1,3.0,29.48,NNW,333,6.0,18.0,35,0.00,CLR,OVC,0.00,WeatherDisplay:10.37,2013-02-17 18:30:00,
2013-02-17 13:40:00,27.2,1.8,29.48,NW,316,5.0,12.0,33,0.00,CLR,OVC,0.00,WeatherDisplay:10.37,2013-02-17 18:40:00,
2013-02-17 13:50:00,26.6,2.0,29.49,NW,325,6.0,21.0,34,0.00,CLR,OVC,0.00,WeatherDisplay:10.37,2013-02-17 18:50:00,
2013-02-17 14:00:00,26.6,2.6,29.49,NW,312,5.0,20.0,35,0.00,CLR,OVC,0.00,WeatherDisplay:10.37,2013-02-17 19:00:00,
2013-02-17 14:10:00,26.4,2.4,29.49,NW,312,8.0,18.0,35,0.00,CLR,OVC,0.00,WeatherDisplay:10.37,2013-02-17 19:10:00,
2013-02-17 14:20:00,26.0,1.4,29.50,NW,307,8.0,16.0,34,0.00,CLR,OVC,0.00,WeatherDisplay:10.37,2013-02-17 19:20:00,
2013-02-17 14:30:00,25.7,1.2,29.50,WNW,299,8.0,20.0,34,0.00,CLR,OVC,0.00,WeatherDisplay:10.37,2013-02-17 19:30:00,
2013-02-17 14:40:00,25.7,0.5,29.50,NW,306,12.0,32.0,33,0.00,CLR,OVC,0.00,WeatherDisplay:10.37,2013-02-17 19:40:00,
2013-02-17 14:50:00,25.7,1.2,29.50,WNW,302,5.0,20.0,34,0.00,CLR,OVC,0.00,WeatherDisplay:10.37,2013-02-17 19:50:00,
2013-02-17 15:00:00,25.6,-0.2,29.50,NW,311,7.0,26.0,32,0.00,CLR,OVC,0.00,WeatherDisplay:10.37,2013-02-17 20:00:00,
2013-02-17 15:10:00,25.4,0.2,29.51,NW,312,8.0,16.0,33,0.00,CLR,OVC,0.00,WeatherDisplay:10.37,2013-02-17 20:10:00,
2013-02-17 15:20:00,25.4,-0.4,29.52,WNW,300,6.0,12.0,32,0.00,CLR,OVC,0.00,WeatherDisplay:10.37,2013-02-17 20:20:00,
2013-02-17 15:30:00,25.4,-0.4,29.52,WNW,303,5.0,18.0,32,0.00,CLR,OVC,0.00,WeatherDisplay:10.37,2013-02-17 20:30:00,
2013-02-17 15:40:00,25.0,-1.4,29.52,WNW,299,7.0,18.0,31,0.00,CLR,OVC,0.00,WeatherDisplay:10.37,2013-02-17 20:40:00,
2013-02-17 15:50:00,25.0,-0.1,29.53,WNW,301,7.0,13.0,33,0.00,CLR,OVC,0.00,WeatherDisplay:10.37,2013-02-17 20:50:00,
2013-02-17 16:00:00,24.7,-0.4,29.53,WNW,303,6.0,17.0,33,0.00,CLR,OVC,0.00,WeatherDisplay:10.37,2013-02-17 21:00:00,
2013-02-17 16:10:00,24.5,-0.5,29.54,WNW,299,8.0,17.0,33,0.00,CLR,OVC,0.00,WeatherDisplay:10.37,2013-02-17 21:10:00,
2013-02-17 16:20:00,24.4,-0.6,29.55,NW,312,5.0,17.0,33,0.00,CLR,OVC,0.00,WeatherDisplay:10.37,2013-02-17 21:20:00,
2013-02-17 16:30:00,24.2,0.4,29.55,WNW,286,7.0,14.0,35,0.00,CLR,OVC,0.00,WeatherDisplay:10.37,2013-02-17 21:30:00,
2013-02-17 16:40:00,23.7,0.0,29.56,WNW,293,8.0,14.0,35,0.00,CLR,OVC,0.00,WeatherDisplay:10.37,2013-02-17 21:40:00,
2013-02-17 16:50:00,23.3,-0.4,29.57,NW,304,6.0,18.0,35,0.00,CLR,OVC,0.00,WeatherDisplay:10.37,2013-02-17 21:50:00,
2013-02-17 17:00:00,22.9,-0.1,29.57,WNW,290,6.0,17.0,36,0.00,CLR,OVC,0.00,WeatherDisplay:10.37,2013-02-17 22:00:00,
2013-02-17 17:10:00,22.7,-0.9,29.58,WNW,297,8.0,18.0,35,0.00,CLR,OVC,0.00,WeatherDisplay:10.37,2013-02-17 22:10:00,
2013-02-17 17:20:00,22.4,0.0,29.59,NW,313,8.0,18.0,37,0.00,CLR,OVC,0.00,WeatherDisplay:10.37,2013-02-17 22:20:00,
2013-02-17 17:30:00,22.4,-0.6,29.59,WNW,295,10.0,20.0,36,0.00,CLR,OVC,0.00,WeatherDisplay:10.37,2013-02-17 22:30:00,
2013-02-17 17:40:00,22.2,-0.8,29.60,WNW,296,5.0,15.0,36,0.00,CLR,OVC,0.00,WeatherDisplay:10.37,2013-02-17 22:40:00,
2013-02-17 17:50:00,21.9,-1.1,29.62,NW,305,8.0,13.0,36,0.00,CLR,OVC,0.00,WeatherDisplay:10.37,2013-02-17 22:50:00,
2013-02-17 18:00:00,21.6,-1.3,29.62,NW,308,10.0,23.0,36,0.00,CLR,OVC,0.00,WeatherDisplay:10.37,2013-02-17 23:00:00,
2013-02-17 18:10:00,21.3,-1.5,29.63,NNW,332,10.0,22.0,36,0.00,CLR,OVC,0.00,WeatherDisplay:10.37,2013-02-17 23:10:00,
2013-02-17 18:20:00,21.1,0.0,29.64,WNW,294,7.0,13.0,39,0.00,CLR,OVC,0.00,WeatherDisplay:10.37,2013-02-17 23:20:00,
2013-02-17 18:30:00,20.9,-0.2,29.64,WNW,291,7.0,17.0,39,0.00,CLR,OVC,0.00,WeatherDisplay:10.37,2013-02-17 23:30:00,
2013-02-17 18:40:00,20.5,-1.1,29.64,WNW,297,7.0,20.0,38,0.00,CLR,OVC,0.00,WeatherDisplay:10.37,2013-02-17 23:40:00,
2013-02-17 18:50:00,20.5,-1.1,29.65,NW,305,7.0,14.0,38,0.00,CLR,OVC,0.00,WeatherDisplay:10.37,2013-02-17 23:50:00,
2013-02-17 19:00:00,20.2,-0.8,29.65,NW,305,6.0,16.0,39,0.00,CLR,OVC,0.00,WeatherDisplay:10.37,2013-02-18 00:00:00,
2013-02-17 19:10:00,20.0,-0.5,29.65,WNW,294,6.0,13.0,40,0.00,CLR,OVC,0.00,WeatherDisplay:10.37,2013-02-18 00:10:00,
2013-02-17 19:20:00,19.7,-1.3,29.66,WNW,287,7.0,17.0,39,0.00,CLR,OVC,0.00,WeatherDisplay:10.37,2013-02-18 00:20:00,
2013-02-17 19:30:00,19.5,-2.0,29.66,NW,309,8.0,18.0,38,0.00,CLR,OVC,0.00,WeatherDisplay:10.37,2013-02-18 00:30:00,
2013-02-17 19:40:00,19.2,-1.2,29.66,NW,316,2.0,16.0,40,0.00,CLR,OVC,0.00,WeatherDisplay:10.37,2013-02-18 00:40:00,
2013-02-17 19:50:00,18.9,-1.0,29.67,NW,315,5.0,12.0,41,0.00,CLR,OVC,0.00,WeatherDisplay:10.37,2013-02-18 00:50:00,
2013-02-17 20:00:00,18.8,-1.1,29.67,WNW,293,6.0,16.0,41,0.00,CLR,OVC,0.00,WeatherDisplay:10.37,2013-02-18 01:00:00,
2013-02-17 20:10:00,18.4,-0.9,29.68,NW,311,6.0,16.0,42,0.00,CLR,OVC,0.00,WeatherDisplay:10.37,2013-02-18 01:10:00,
2013-02-17 20:20:00,18.1,-0.7,29.69,NW,309,7.0,23.0,43,0.00,CLR,OVC,0.00,WeatherDisplay:10.37,2013-02-18 01:20:00,
2013-02-17 20:30:00,18.0,-0.8,29.69,WNW,295,7.0,14.0,43,0.00,CLR,OVC,0.00,WeatherDisplay:10.37,2013-02-18 01:30:00,
2013-02-17 20:40:00,17.8,-0.5,29.69,WNW,297,6.0,18.0,44,0.00,CLR,OVC,0.00,WeatherDisplay:10.37,2013-02-18 01:40:00,
2013-02-17 20:50:00,17.5,0.2,29.70,NW,313,6.0,12.0,46,0.00,CLR,OVC,0.00,WeatherDisplay:10.37,2013-02-18 01:50:00,
2013-02-17 21:00:00,17.3,-0.4,29.70,NW,305,3.0,12.0,45,0.00,CLR,OVC,0.00,WeatherDisplay:10.37,2013-02-18 02:00:00,
2013-02-17 21:10:00,17.2,-0.1,29.71,NW,306,3.0,12.0,46,0.00,CLR,OVC,0.00,WeatherDisplay:10.37,2013-02-18 02:10:00,
2013-02-17 21:20:00,17.0,-0.7,29.71,WNW,299,6.0,20.0,45,0.00,CLR,OVC,0.00,WeatherDisplay:10.37,2013-02-18 02:20:00,
2013-02-17 21:30:00,16.9,0.1,29.71,NW,305,2.0,4.0,47,0.00,CLR,OVC,0.00,WeatherDisplay:10.37,2013-02-18 02:30:00,
2013-02-17 21:40:00,16.7,-0.1,29.72,WNW,302,8.0,14.0,47,0.00,CLR,OVC,0.00,WeatherDisplay:10.37,2013-02-18 02:40:00,
2013-02-17 21:50:00,16.5,0.2,29.72,WNW,294,5.0,12.0,48,0.00,CLR,OVC,0.00,WeatherDisplay:10.37,2013-02-18 02:50:00,
2013-02-17 22:00:00,16.4,-0.3,29.72,NW,307,5.0,12.0,47,0.00,CLR,OVC,0.00,WeatherDisplay:10.37,2013-02-18 03:00:00,
2013-02-17 22:10:00,16.5,-0.7,29.73,NW,318,7.0,20.0,46,0.00,CLR,OVC,0.00,WeatherDisplay:10.37,2013-02-18 03:10:00,
2013-02-17 22:20:00,16.3,0.0,29.73,NW,313,2.0,12.0,48,0.00,CLR,OVC,0.00,WeatherDisplay:10.37,2013-02-18 03:20:00,
2013-02-17 22:30:00,16.1,-0.6,29.73,NW,310,6.0,12.0,47,0.00,CLR,OVC,0.00,WeatherDisplay:10.37,2013-02-18 03:30:00,
2013-02-17 22:40:00,16.2,-0.5,29.73,NW,312,3.0,20.0,47,0.00,CLR,OVC,0.00,WeatherDisplay:10.37,2013-02-18 03:40:00,
2013-02-17 22:50:00,15.9,-0.4,29.74,WNW,294,5.0,12.0,48,0.00,CLR,OVC,0.00,WeatherDisplay:10.37,2013-02-18 03:50:00,
2013-02-17 23:00:00,15.9,-0.8,29.74,WNW,293,9.0,18.0,47,0.00,CLR,OVC,0.00,WeatherDisplay:10.37,2013-02-18 04:00:00,
2013-02-17 23:10:00,15.9,-0.4,29.75,NW,315,3.0,10.0,48,0.00,CLR,OVC,0.00,WeatherDisplay:10.37,2013-02-18 04:10:00,
2013-02-17 23:20:00,15.7,-0.1,29.75,NW,319,2.0,10.0,49,0.00,CLR,OVC,0.00,WeatherDisplay:10.37,2013-02-18 04:20:00,
2013-02-17 23:30:00,15.7,-0.1,29.75,NW,316,2.0,7.0,49,0.00,CLR,OVC,0.00,WeatherDisplay:10.37,2013-02-18 04:30:00,
2013-02-17 23:40:00,15.7,-0.1,29.76,WNW,298,10.0,22.0,49,0.00,CLR,OVC,0.00,WeatherDisplay:10.37,2013-02-18 04:40:00,
2013-02-17 23:50:00,15.7,-0.1,29.76,NW,316,1.0,20.0,49,0.00,CLR,OVC,0.00,WeatherDisplay:10.37,2013-02-18 04:50:00,